Retour au catalogue

STARLINK-4194

ActifCommunicationsVLEO
NORAD 53000·PAYLOAD·🇺🇸 United States

Lancé Jul 7, 2022 depuis Cape Canaveral Space Force Station

Loading…

Prochains Passages (prochaines 24 heures)

TLE

FraisSource: CelesTrak SupGP

Époque: Sep 14, 2026, 20:30 UTC

1 53000C 22076Q   26257.85465278 -.00029781  00000+0 -88019-3 0  2576
2 53000  53.1580 309.7624 0001134  86.1199  86.2328 15.34395059    10

Suivez STARLINK-4194 en temps réel avec AllMySat

Download on the App Store